owner,sensor,date,latitude,longitude,vertical_datum,sea_water_practical_salinity,qcFlag 
SCCF RECON,ioos:station:SCCF:13:1,2019-11-01T04:00:00Z,26.5255,-82.0032,2.51,29.92,11111222 
SCCF RECON,ioos:station:SCCF:13:1,2019-11-01T05:00:00Z,26.5255,-82.0032,2.6,31.55,11111222 
SCCF RECON,ioos:station:SCCF:13:1,2019-11-01T06:00:00Z,26.5255,-82.0032,2.66,31.5,11111222 
SCCF RECON,ioos:station:SCCF:13:1,2019-11-01T07:00:00Z,26.5255,-82.0032,2.69,32.13,11111222 
SCCF RECON,ioos:station:SCCF:13:1,2019-11-01T08:00:00Z,26.5255,-82.0032,2.71,32.94,11111222 
SCCF RECON,ioos:station:SCCF:13:1,2019-11-01T09:00:00Z,26.5255,-82.0032,2.676,33.33,11111222 
SCCF RECON,ioos:station:SCCF:13:1,2019-11-01T10:00:00Z,26.5255,-82.0032,2.58,33.32,11111222 
SCCF RECON,ioos:station:SCCF:13:1,2019-11-01T11:00:00Z,26.5255,-82.0032,2.48,32.55,11111222 
SCCF RECON,ioos:station:SCCF:13:1,2019-11-01T12:00:00Z,26.5255,-82.0032,2.38,30.55,11111222 
SCCF RECON,ioos:station:SCCF:13:1,2019-11-01T13:00:00Z,26.5255,-82.0032,2.282,29.6,11111222 
SCCF RECON,ioos:station:SCCF:13:1,2019-11-01T14:00:00Z,26.5255,-82.0032,2.186,28.99,11111222 
SCCF RECON,ioos:station:SCCF:13:1,2019-11-01T15:00:00Z,26.5255,-82.0032,2.1,28.4,11111222 
SCCF RECON,ioos:station:SCCF:13:1,2019-11-01T16:00:00Z,26.5255,-82.0032,2.06,27.22,11111222 
SCCF RECON,ioos:station:SCCF:13:1,2019-11-01T17:00:00Z,26.5255,-82.0032,2.13,26.25,11111222 
SCCF RECON,ioos:station:SCCF:13:1,2019-11-01T18:00:00Z,26.5255,-82.0032,2.243,25.52,11111222 
SCCF RECON,ioos:station:SCCF:13:1,2019-11-01T19:00:00Z,26.5255,-82.0032,2.291,25.83,11111222 
SCCF RECON,ioos:station:SCCF:13:1,2019-11-01T20:00:00Z,26.5255,-82.0032,2.333,27.5,11111222 
SCCF RECON,ioos:station:SCCF:13:1,2019-11-01T21:00:00Z,26.5255,-82.0032,2.381,27.87,11111222 
SCCF RECON,ioos:station:SCCF:13:1,2019-11-01T22:00:00Z,26.5255,-82.0032,2.44,29.49,11111222 
SCCF RECON,ioos:station:SCCF:13:1,2019-11-02T04:00:00Z,26.5255,-82.0032,2.37,29.29,11111222 
SCCF RECON,ioos:station:SCCF:13:1,2019-11-02T05:00:00Z,26.5255,-82.0032,2.46,29.07,11111222 
SCCF RECON,ioos:station:SCCF:13:1,2019-11-02T06:00:00Z,26.5255,-82.0032,2.53,31.01,11111222 
SCCF RECON,ioos:station:SCCF:13:1,2019-11-02T07:00:00Z,26.5255,-82.0032,2.56,31.26,11111222 
SCCF RECON,ioos:station:SCCF:13:1,2019-11-02T08:00:00Z,26.5255,-82.0032,2.58,32.08,11111222 
SCCF RECON,ioos:station:SCCF:13:1,2019-11-02T09:00:00Z,26.5255,-82.0032,2.57,32.36,11111222 
SCCF RECON,ioos:station:SCCF:13:1,2019-11-02T10:00:00Z,26.5255,-82.0032,2.51,32.54,11111222 
SCCF RECON,ioos:station:SCCF:13:1,2019-11-02T11:00:00Z,26.5255,-82.0032,2.46,32.4,11111222 
SCCF RECON,ioos:station:SCCF:13:1,2019-11-02T12:00:00Z,26.5255,-82.0032,2.38,31.11,11111222 
SCCF RECON,ioos:station:SCCF:13:1,2019-11-02T13:00:00Z,26.5255,-82.0032,2.29,27.52,11111222 
SCCF RECON,ioos:station:SCCF:13:1,2019-11-02T14:00:00Z,26.5255,-82.0032,2.21,27.56,11111222 
SCCF RECON,ioos:station:SCCF:13:1,2019-11-02T15:00:00Z,26.5255,-82.0032,2.12,26.37,11111222 
SCCF RECON,ioos:station:SCCF:13:1,2019-11-02T16:00:00Z,26.5255,-82.0032,2.05,25.4,11111222 
SCCF RECON,ioos:station:SCCF:13:1,2019-11-02T17:00:00Z,26.5255,-82.0032,2.038,24.85,11111222 
SCCF RECON,ioos:station:SCCF:13:1,2019-11-02T18:00:00Z,26.5255,-82.0032,2.107,24.32,11111222 
SCCF RECON,ioos:station:SCCF:13:1,2019-11-02T19:00:00Z,26.5255,-82.0032,2.196,24.04,11111222 
SCCF RECON,ioos:station:SCCF:13:1,2019-11-02T20:00:00Z,26.5255,-82.0032,2.25,25.64,11111222 
SCCF RECON,ioos:station:SCCF:13:1,2019-11-02T21:00:00Z,26.5255,-82.0032,2.29,26.64,11111222 
SCCF RECON,ioos:station:SCCF:13:1,2019-11-02T22:00:00Z,26.5255,-82.0032,2.349,28.44,11111222 
SCCF RECON,ioos:station:SCCF:13:1,2019-11-03T04:00:00Z,26.5255,-82.0032,2.32,29.98,11111222 
SCCF RECON,ioos:station:SCCF:13:1,2019-11-03T05:00:00Z,26.5255,-82.0032,2.31,28.92,11111222 
SCCF RECON,ioos:station:SCCF:13:1,2019-11-03T06:00:00Z,26.5255,-82.0032,2.34,28.4,11111222 
SCCF RECON,ioos:station:SCCF:13:1,2019-11-03T07:00:00Z,26.5255,-82.0032,2.385,29.98,11111222 
SCCF RECON,ioos:station:SCCF:13:1,2019-11-03T08:00:00Z,26.5255,-82.0032,2.414,30.01,11111222 
SCCF RECON,ioos:station:SCCF:13:1,2019-11-03T09:00:00Z,26.5255,-82.0032,2.427,30.34,11111222 
SCCF RECON,ioos:station:SCCF:13:1,2019-11-03T10:00:00Z,26.5255,-82.0032,2.41,30.81,11111222 
SCCF RECON,ioos:station:SCCF:13:1,2019-11-03T11:00:00Z,26.5255,-82.0032,2.38,30.94,11111222 
SCCF RECON,ioos:station:SCCF:13:1,2019-11-03T12:00:00Z,26.5255,-82.0032,2.35,30.77,11111222 
SCCF RECON,ioos:station:SCCF:13:1,2019-11-03T13:00:00Z,26.5255,-82.0032,2.283,28.76,11111222 
SCCF RECON,ioos:station:SCCF:13:1,2019-11-03T14:00:00Z,26.5255,-82.0032,2.203,24.96,11111222 
SCCF RECON,ioos:station:SCCF:13:1,2019-11-03T15:00:00Z,26.5255,-82.0032,2.12,25.09,11111222 
SCCF RECON,ioos:station:SCCF:13:1,2019-11-03T16:00:00Z,26.5255,-82.0032,2.05,24.65,11111222 
SCCF RECON,ioos:station:SCCF:13:1,2019-11-03T17:00:00Z,26.5255,-82.0032,1.994,24.13,11111222 
SCCF RECON,ioos:station:SCCF:13:1,2019-11-03T18:00:00Z,26.5255,-82.0032,1.972,23.47,11111222 
SCCF RECON,ioos:station:SCCF:13:1,2019-11-03T19:00:00Z,26.5255,-82.0032,2.04,22.78,11111222 
SCCF RECON,ioos:station:SCCF:13:1,2019-11-03T20:00:00Z,26.5255,-82.0032,2.123,22.47,11111222 
SCCF RECON,ioos:station:SCCF:13:1,2019-11-03T21:00:00Z,26.5255,-82.0032,2.19,23.38,11111222 
SCCF RECON,ioos:station:SCCF:13:1,2019-11-03T22:00:00Z,26.5255,-82.0032,2.245,25.34,11111222 
SCCF RECON,ioos:station:SCCF:13:1,2019-11-04T05:00:00Z,26.5255,-82.0032,2.35,31.16,11111222 
SCCF RECON,ioos:station:SCCF:13:1,2019-11-04T16:00:00Z,26.5255,-82.0032,2.26,25.9,11111222 
SCCF RECON,ioos:station:SCCF:13:1,2019-11-04T17:00:00Z,26.5255,-82.0032,2.195,26.38,11111222 
SCCF RECON,ioos:station:SCCF:13:1,2019-11-04T18:00:00Z,26.5255,-82.0032,2.133,25.32,11111222 
SCCF RECON,ioos:station:SCCF:13:1,2019-11-04T19:00:00Z,26.5255,-82.0032,2.12,24.14,11111222 
SCCF RECON,ioos:station:SCCF:13:1,2019-11-04T20:00:00Z,26.5255,-82.0032,2.172,23.87,11111222 
SCCF RECON,ioos:station:SCCF:13:1,2019-11-04T21:00:00Z,26.5255,-82.0032,2.26,23.99,11111222 
SCCF RECON,ioos:station:SCCF:13:1,2019-11-04T22:00:00Z,26.5255,-82.0032,2.323,26.78,11111222 
SCCF RECON,ioos:station:SCCF:13:1,2019-11-05T05:00:00Z,26.5255,-82.0032,2.5,32.05,11111222 
SCCF RECON,ioos:station:SCCF:13:1,2019-11-05T06:00:00Z,26.5255,-82.0032,2.47,32.11,11111222 
SCCF RECON,ioos:station:SCCF:13:1,2019-11-05T07:00:00Z,26.5255,-82.0032,2.42,31.36,11111222 
SCCF RECON,ioos:station:SCCF:13:1,2019-11-05T08:00:00Z,26.5255,-82.0032,2.42,29.98,11111222 
SCCF RECON,ioos:station:SCCF:13:1,2019-11-05T09:00:00Z,26.5255,-82.0032,2.48,29.2,11111222 
SCCF RECON,ioos:station:SCCF:13:1,2019-11-05T10:00:00Z,26.5255,-82.0032,2.55,30.44,11111222 
SCCF RECON,ioos:station:SCCF:13:1,2019-11-05T11:00:00Z,26.5255,-82.0032,2.59,31.3,11111222 
SCCF RECON,ioos:station:SCCF:13:1,2019-11-05T12:00:00Z,26.5255,-82.0032,2.61,31.34,11111222 
SCCF RECON,ioos:station:SCCF:13:1,2019-11-05T13:00:00Z,26.5255,-82.0032,2.6,31.43,11111222 
SCCF RECON,ioos:station:SCCF:13:1,2019-11-05T14:00:00Z,26.5255,-82.0032,2.566,31.92,11111222 
SCCF RECON,ioos:station:SCCF:13:1,2019-11-05T15:00:00Z,26.5255,-82.0032,2.53,31.94,11111222 
SCCF RECON,ioos:station:SCCF:13:1,2019-11-05T16:00:00Z,26.5255,-82.0032,2.462,31.11,11111222 
SCCF RECON,ioos:station:SCCF:13:1,2019-11-05T17:00:00Z,26.5255,-82.0032,2.392,28.26,11111222 
SCCF RECON,ioos:station:SCCF:13:1,2019-11-05T18:00:00Z,26.5255,-82.0032,2.32,27.88,11111222 
SCCF RECON,ioos:station:SCCF:13:1,2019-11-05T19:00:00Z,26.5255,-82.0032,2.25,27.44,11111222 
SCCF RECON,ioos:station:SCCF:13:1,2019-11-05T20:00:00Z,26.5255,-82.0032,2.22,26.5,11111222 
SCCF RECON,ioos:station:SCCF:13:1,2019-11-05T21:00:00Z,26.5255,-82.0032,2.22,26.0,11111222 
SCCF RECON,ioos:station:SCCF:13:1,2019-11-05T22:00:00Z,26.5255,-82.0032,2.306,25.84,11111222 
SCCF RECON,ioos:station:SCCF:13:1,2019-11-06T05:00:00Z,26.5255,-82.0032,2.49,31.83,11111222 
SCCF RECON,ioos:station:SCCF:13:1,2019-11-06T06:00:00Z,26.5255,-82.0032,2.4,31.28,11111222 
SCCF RECON,ioos:station:SCCF:13:1,2019-11-06T07:00:00Z,26.5255,-82.0032,2.34,28.87,11111222 
SCCF RECON,ioos:station:SCCF:13:1,2019-11-06T08:00:00Z,26.5255,-82.0032,2.3,27.21,11111222 
SCCF RECON,ioos:station:SCCF:13:1,2019-11-06T09:00:00Z,26.5255,-82.0032,2.3,26.86,11111222 
SCCF RECON,ioos:station:SCCF:13:1,2019-11-06T10:00:00Z,26.5255,-82.0032,2.35,25.94,11111222 
SCCF RECON,ioos:station:SCCF:13:1,2019-11-06T11:00:00Z,26.5255,-82.0032,2.41,26.0,11111222 
SCCF RECON,ioos:station:SCCF:13:1,2019-11-06T12:00:00Z,26.5255,-82.0032,2.46,28.47,11111222 
SCCF RECON,ioos:station:SCCF:13:1,2019-11-06T13:00:00Z,26.5255,-82.0032,2.49,29.07,11111222 
SCCF RECON,ioos:station:SCCF:13:1,2019-11-06T14:00:00Z,26.5255,-82.0032,2.49,30.01,11111222 
SCCF RECON,ioos:station:SCCF:13:1,2019-11-06T15:00:00Z,26.5255,-82.0032,2.461,30.44,11111222 
SCCF RECON,ioos:station:SCCF:13:1,2019-11-06T16:00:00Z,26.5255,-82.0032,2.42,30.14,11111222 
SCCF RECON,ioos:station:SCCF:13:1,2019-11-06T17:00:00Z,26.5255,-82.0032,2.35,29.74,11111222 
SCCF RECON,ioos:station:SCCF:13:1,2019-11-06T18:00:00Z,26.5255,-82.0032,2.27,26.37,11111222 
SCCF RECON,ioos:station:SCCF:13:1,2019-11-06T19:00:00Z,26.5255,-82.0032,2.2,25.5,11111222 
SCCF RECON,ioos:station:SCCF:13:1,2019-11-06T20:00:00Z,26.5255,-82.0032,2.14,25.07,11111222 
SCCF RECON,ioos:station:SCCF:13:1,2019-11-06T21:00:00Z,26.5255,-82.0032,2.12,24.53,11111222 
SCCF RECON,ioos:station:SCCF:13:1,2019-11-06T22:00:00Z,26.5255,-82.0032,2.19,24.04,11111222 
SCCF RECON,ioos:station:SCCF:13:1,2019-11-07T05:00:00Z,26.5255,-82.0032,2.468,31.87,11111222 
SCCF RECON,ioos:station:SCCF:13:1,2019-11-07T06:00:00Z,26.5255,-82.0032,2.387,32.21,11111222 
SCCF RECON,ioos:station:SCCF:13:1,2019-11-07T07:00:00Z,26.5255,-82.0032,2.3,31.1,11111222 
SCCF RECON,ioos:station:SCCF:13:1,2019-11-07T08:00:00Z,26.5255,-82.0032,2.24,27.76,11111222 
SCCF RECON,ioos:station:SCCF:13:1,2019-11-07T09:00:00Z,26.5255,-82.0032,2.21,26.34,11111222 
SCCF RECON,ioos:station:SCCF:13:1,2019-11-07T10:00:00Z,26.5255,-82.0032,2.23,25.74,11111222 
SCCF RECON,ioos:station:SCCF:13:1,2019-11-07T11:00:00Z,26.5255,-82.0032,2.33,25.24,11111222 
SCCF RECON,ioos:station:SCCF:13:1,2019-11-07T12:00:00Z,26.5255,-82.0032,2.404,28.31,11111222 
SCCF RECON,ioos:station:SCCF:13:1,2019-11-07T13:00:00Z,26.5255,-82.0032,2.47,29.63,11111222 
SCCF RECON,ioos:station:SCCF:13:1,2019-11-07T14:00:00Z,26.5255,-82.0032,2.52,30.24,11111222 
SCCF RECON,ioos:station:SCCF:13:1,2019-11-07T15:00:00Z,26.5255,-82.0032,2.53,31.2,11111222 
SCCF RECON,ioos:station:SCCF:13:1,2019-11-07T16:00:00Z,26.5255,-82.0032,2.517,31.65,11111222 
SCCF RECON,ioos:station:SCCF:13:1,2019-11-07T17:00:00Z,26.5255,-82.0032,2.45,31.91,11111222 
SCCF RECON,ioos:station:SCCF:13:1,2019-11-07T18:00:00Z,26.5255,-82.0032,2.37,31.72,11111222 
SCCF RECON,ioos:station:SCCF:13:1,2019-11-07T19:00:00Z,26.5255,-82.0032,2.283,30.02,11111222 
SCCF RECON,ioos:station:SCCF:13:1,2019-11-07T20:00:00Z,26.5255,-82.0032,2.22,26.25,11111222 
SCCF RECON,ioos:station:SCCF:13:1,2019-11-07T21:00:00Z,26.5255,-82.0032,2.188,26.31,11111222 
SCCF RECON,ioos:station:SCCF:13:1,2019-11-07T22:00:00Z,26.5255,-82.0032,2.19,25.15,11111222 
SCCF RECON,ioos:station:SCCF:13:1,2019-11-08T05:00:00Z,26.5255,-82.0032,2.57,32.65,11111222 
SCCF RECON,ioos:station:SCCF:13:1,2019-11-08T06:00:00Z,26.5255,-82.0032,2.48,32.46,11111222 
SCCF RECON,ioos:station:SCCF:13:1,2019-11-08T07:00:00Z,26.5255,-82.0032,2.385,32.45,11111222 
SCCF RECON,ioos:station:SCCF:13:1,2019-11-08T08:00:00Z,26.5255,-82.0032,2.31,30.76,11111222 
SCCF RECON,ioos:station:SCCF:13:1,2019-11-08T09:00:00Z,26.5255,-82.0032,2.25,28.45,11111222 
SCCF RECON,ioos:station:SCCF:13:1,2019-11-08T10:00:00Z,26.5255,-82.0032,2.21,27.61,11111222 
SCCF RECON,ioos:station:SCCF:13:1,2019-11-08T11:00:00Z,26.5255,-82.0032,2.26,26.36,11111222 
SCCF RECON,ioos:station:SCCF:13:1,2019-11-08T12:00:00Z,26.5255,-82.0032,2.39,26.3,11111222 
SCCF RECON,ioos:station:SCCF:13:1,2019-11-08T13:00:00Z,26.5255,-82.0032,2.49,29.14,11111222 
SCCF RECON,ioos:station:SCCF:13:1,2019-11-08T14:00:00Z,26.5255,-82.0032,2.55,29.76,11111222 
SCCF RECON,ioos:station:SCCF:13:1,2019-11-08T15:00:00Z,26.5255,-82.0032,2.59,31.47,11111222 
SCCF RECON,ioos:station:SCCF:13:1,2019-11-08T16:00:00Z,26.5255,-82.0032,2.61,32.24,11111222 
SCCF RECON,ioos:station:SCCF:13:1,2019-11-08T17:00:00Z,26.5255,-82.0032,2.6,32.56,11111222 
SCCF RECON,ioos:station:SCCF:13:1,2019-11-08T18:00:00Z,26.5255,-82.0032,2.535,32.45,11111222 
SCCF RECON,ioos:station:SCCF:13:1,2019-11-08T19:00:00Z,26.5255,-82.0032,2.429,32.51,11111222 
SCCF RECON,ioos:station:SCCF:13:1,2019-11-08T20:00:00Z,26.5255,-82.0032,2.345,31.81,11111222 
SCCF RECON,ioos:station:SCCF:13:1,2019-11-08T21:00:00Z,26.5255,-82.0032,2.3,30.99,11111222 
SCCF RECON,ioos:station:SCCF:13:1,2019-11-08T22:00:00Z,26.5255,-82.0032,2.27,29.96,11111222 
SCCF RECON,ioos:station:SCCF:13:1,2019-11-09T05:00:00Z,26.5255,-82.0032,2.56,31.61,11111222 
SCCF RECON,ioos:station:SCCF:13:1,2019-11-09T06:00:00Z,26.5255,-82.0032,2.501,32.02,11111222 
SCCF RECON,ioos:station:SCCF:13:1,2019-11-09T07:00:00Z,26.5255,-82.0032,2.4,31.51,11111222 
SCCF RECON,ioos:station:SCCF:13:1,2019-11-09T08:00:00Z,26.5255,-82.0032,2.304,28.94,11111222 
SCCF RECON,ioos:station:SCCF:13:1,2019-11-09T09:00:00Z,26.5255,-82.0032,2.223,27.95,11111222 
SCCF RECON,ioos:station:SCCF:13:1,2019-11-09T10:00:00Z,26.5255,-82.0032,2.151,27.46,11111222 
SCCF RECON,ioos:station:SCCF:13:1,2019-11-09T11:00:00Z,26.5255,-82.0032,2.11,26.12,11111222 
SCCF RECON,ioos:station:SCCF:13:1,2019-11-09T12:00:00Z,26.5255,-82.0032,2.142,25.26,11111222 
SCCF RECON,ioos:station:SCCF:13:1,2019-11-09T13:00:00Z,26.5255,-82.0032,2.26,24.96,11111222 
SCCF RECON,ioos:station:SCCF:13:1,2019-11-09T14:00:00Z,26.5255,-82.0032,2.34,25.48,11111222 
SCCF RECON,ioos:station:SCCF:13:1,2019-11-09T15:00:00Z,26.5255,-82.0032,2.371,26.82,11111222 
SCCF RECON,ioos:station:SCCF:13:1,2019-11-09T16:00:00Z,26.5255,-82.0032,2.425,28.15,11111222 
SCCF RECON,ioos:station:SCCF:13:1,2019-11-09T17:00:00Z,26.5255,-82.0032,2.414,29.52,11111222 
SCCF RECON,ioos:station:SCCF:13:1,2019-11-09T18:00:00Z,26.5255,-82.0032,2.35,30.16,11111222 
SCCF RECON,ioos:station:SCCF:13:1,2019-11-09T19:00:00Z,26.5255,-82.0032,2.246,29.35,11111222 
SCCF RECON,ioos:station:SCCF:13:1,2019-11-09T20:00:00Z,26.5255,-82.0032,2.17,27.76,11111222 
SCCF RECON,ioos:station:SCCF:13:1,2019-11-09T21:00:00Z,26.5255,-82.0032,2.14,26.02,11111222 
SCCF RECON,ioos:station:SCCF:13:1,2019-11-09T22:00:00Z,26.5255,-82.0032,2.12,24.74,11111222 
SCCF RECON,ioos:station:SCCF:13:1,2019-11-10T05:00:00Z,26.5255,-82.0032,2.557,31.59,11111222 
SCCF RECON,ioos:station:SCCF:13:1,2019-11-10T06:00:00Z,26.5255,-82.0032,2.5,31.99,11111222 
SCCF RECON,ioos:station:SCCF:13:1,2019-11-10T07:00:00Z,26.5255,-82.0032,2.38,31.87,11111222 
SCCF RECON,ioos:station:SCCF:13:1,2019-11-10T08:00:00Z,26.5255,-82.0032,2.276,30.17,11111222 
SCCF RECON,ioos:station:SCCF:13:1,2019-11-10T09:00:00Z,26.5255,-82.0032,2.2,27.97,11111222 
SCCF RECON,ioos:station:SCCF:13:1,2019-11-10T10:00:00Z,26.5255,-82.0032,2.129,27.3,11111222 
SCCF RECON,ioos:station:SCCF:13:1,2019-11-10T11:00:00Z,26.5255,-82.0032,2.08,25.75,11111222 
SCCF RECON,ioos:station:SCCF:13:1,2019-11-10T12:00:00Z,26.5255,-82.0032,2.12,24.48,11111222 
SCCF RECON,ioos:station:SCCF:13:1,2019-11-10T13:00:00Z,26.5255,-82.0032,2.243,24.16,11111222 
SCCF RECON,ioos:station:SCCF:13:1,2019-11-10T14:00:00Z,26.5255,-82.0032,2.352,25.29,11111222 
SCCF RECON,ioos:station:SCCF:13:1,2019-11-10T15:00:00Z,26.5255,-82.0032,2.424,27.6,11111222 
SCCF RECON,ioos:station:SCCF:13:1,2019-11-10T16:00:00Z,26.5255,-82.0032,2.492,29.0,11111222 
SCCF RECON,ioos:station:SCCF:13:1,2019-11-10T17:00:00Z,26.5255,-82.0032,2.52,30.5,11111222 
SCCF RECON,ioos:station:SCCF:13:1,2019-11-10T18:00:00Z,26.5255,-82.0032,2.5,31.28,11111222 
SCCF RECON,ioos:station:SCCF:13:1,2019-11-10T19:00:00Z,26.5255,-82.0032,2.441,31.35,11111222 
SCCF RECON,ioos:station:SCCF:13:1,2019-11-10T20:00:00Z,26.5255,-82.0032,2.385,31.19,11111222 
SCCF RECON,ioos:station:SCCF:13:1,2019-11-10T21:00:00Z,26.5255,-82.0032,2.33,30.52,11111222 
SCCF RECON,ioos:station:SCCF:13:1,2019-11-10T22:00:00Z,26.5255,-82.0032,2.28,28.81,11111222 
SCCF RECON,ioos:station:SCCF:13:1,2019-11-11T05:00:00Z,26.5255,-82.0032,2.65,31.29,11111222 
SCCF RECON,ioos:station:SCCF:13:1,2019-11-11T06:00:00Z,26.5255,-82.0032,2.6,31.81,11111222 
SCCF RECON,ioos:station:SCCF:13:1,2019-11-11T07:00:00Z,26.5255,-82.0032,2.5,31.64,11111222 
SCCF RECON,ioos:station:SCCF:13:1,2019-11-11T08:00:00Z,26.5255,-82.0032,2.38,30.92,11111222 
SCCF RECON,ioos:station:SCCF:13:1,2019-11-11T09:00:00Z,26.5255,-82.0032,2.284,28.91,11111222 
SCCF RECON,ioos:station:SCCF:13:1,2019-11-11T10:00:00Z,26.5255,-82.0032,2.21,27.64,11111222 
SCCF RECON,ioos:station:SCCF:13:1,2019-11-11T11:00:00Z,26.5255,-82.0032,2.15,26.62,11111222 
SCCF RECON,ioos:station:SCCF:13:1,2019-11-11T12:00:00Z,26.5255,-82.0032,2.15,25.68,11111222 
SCCF RECON,ioos:station:SCCF:13:1,2019-11-11T13:00:00Z,26.5255,-82.0032,2.24,25.13,11111222 
SCCF RECON,ioos:station:SCCF:13:1,2019-11-11T14:00:00Z,26.5255,-82.0032,2.38,25.41,11111222 
SCCF RECON,ioos:station:SCCF:13:1,2019-11-11T15:00:00Z,26.5255,-82.0032,2.47,27.65,11111222 
SCCF RECON,ioos:station:SCCF:13:1,2019-11-11T16:00:00Z,26.5255,-82.0032,2.531,28.74,11111222 
SCCF RECON,ioos:station:SCCF:13:1,2019-11-11T17:00:00Z,26.5255,-82.0032,2.58,31.2,11111222 
SCCF RECON,ioos:station:SCCF:13:1,2019-11-11T18:00:00Z,26.5255,-82.0032,2.6,31.87,11111222 
SCCF RECON,ioos:station:SCCF:13:1,2019-11-11T19:00:00Z,26.5255,-82.0032,2.591,31.83,11111222 
SCCF RECON,ioos:station:SCCF:13:1,2019-11-11T20:00:00Z,26.5255,-82.0032,2.55,31.68,11111222 
SCCF RECON,ioos:station:SCCF:13:1,2019-11-11T21:00:00Z,26.5255,-82.0032,2.5,31.67,11111222 
SCCF RECON,ioos:station:SCCF:13:1,2019-11-11T22:00:00Z,26.5255,-82.0032,2.451,31.57,11111222 
SCCF RECON,ioos:station:SCCF:13:1,2019-11-12T05:00:00Z,26.5255,-82.0032,2.82,32.55,11111222 
SCCF RECON,ioos:station:SCCF:13:1,2019-11-12T06:00:00Z,26.5255,-82.0032,2.79,32.76,11111222 
SCCF RECON,ioos:station:SCCF:13:1,2019-11-12T07:00:00Z,26.5255,-82.0032,2.69,32.79,11111222 
SCCF RECON,ioos:station:SCCF:13:1,2019-11-12T08:00:00Z,26.5255,-82.0032,2.57,32.71,11111222 
SCCF RECON,ioos:station:SCCF:13:1,2019-11-12T09:00:00Z,26.5255,-82.0032,2.47,31.61,11111222 
SCCF RECON,ioos:station:SCCF:13:1,2019-11-12T10:00:00Z,26.5255,-82.0032,2.37,29.92,11111222 
SCCF RECON,ioos:station:SCCF:13:1,2019-11-12T11:00:00Z,26.5255,-82.0032,2.28,29.6,11111222 
SCCF RECON,ioos:station:SCCF:13:1,2019-11-12T12:00:00Z,26.5255,-82.0032,2.209,28.53,11111222 
SCCF RECON,ioos:station:SCCF:13:1,2019-11-12T13:00:00Z,26.5255,-82.0032,2.217,28.14,11111222 
SCCF RECON,ioos:station:SCCF:13:1,2019-11-12T14:00:00Z,26.5255,-82.0032,2.386,27.36,11111222 
SCCF RECON,ioos:station:SCCF:13:1,2019-11-12T15:00:00Z,26.5255,-82.0032,2.5,27.59,11111222 
SCCF RECON,ioos:station:SCCF:13:1,2019-11-12T16:00:00Z,26.5255,-82.0032,2.573,28.72,11111222 
SCCF RECON,ioos:station:SCCF:13:1,2019-11-12T17:00:00Z,26.5255,-82.0032,2.621,30.09,11111222 
SCCF RECON,ioos:station:SCCF:13:1,2019-11-12T18:00:00Z,26.5255,-82.0032,2.65,32.08,11111222 
SCCF RECON,ioos:station:SCCF:13:1,2019-11-12T19:00:00Z,26.5255,-82.0032,2.651,32.21,11111222 
SCCF RECON,ioos:station:SCCF:13:1,2019-11-12T20:00:00Z,26.5255,-82.0032,2.65,32.12,11111222 
SCCF RECON,ioos:station:SCCF:13:1,2019-11-12T21:00:00Z,26.5255,-82.0032,2.59,32.12,11111222 
SCCF RECON,ioos:station:SCCF:13:1,2019-11-12T22:00:00Z,26.5255,-82.0032,2.52,32.13,11111222 
SCCF RECON,ioos:station:SCCF:13:1,2019-11-13T05:00:00Z,26.5255,-82.0032,2.827,32.26,11111222 
SCCF RECON,ioos:station:SCCF:13:1,2019-11-13T06:00:00Z,26.5255,-82.0032,2.86,32.87,11111222 
SCCF RECON,ioos:station:SCCF:13:1,2019-11-13T07:00:00Z,26.5255,-82.0032,2.79,33.16,11111222 
SCCF RECON,ioos:station:SCCF:13:1,2019-11-13T08:00:00Z,26.5255,-82.0032,2.65,32.99,11111222 
SCCF RECON,ioos:station:SCCF:13:1,2019-11-13T09:00:00Z,26.5255,-82.0032,2.53,32.19,11111222 
SCCF RECON,ioos:station:SCCF:13:1,2019-11-13T10:00:00Z,26.5255,-82.0032,2.43,31.89,11111222 
SCCF RECON,ioos:station:SCCF:13:1,2019-11-13T11:00:00Z,26.5255,-82.0032,2.32,29.64,11111222 
SCCF RECON,ioos:station:SCCF:13:1,2019-11-13T12:00:00Z,26.5255,-82.0032,2.23,28.14,11111222 
SCCF RECON,ioos:station:SCCF:13:1,2019-11-13T13:00:00Z,26.5255,-82.0032,2.152,27.65,11111222 
SCCF RECON,ioos:station:SCCF:13:1,2019-11-13T14:00:00Z,26.5255,-82.0032,2.14,26.59,11111222 
SCCF RECON,ioos:station:SCCF:13:1,2019-11-13T15:00:00Z,26.5255,-82.0032,2.249,25.46,11111222 
SCCF RECON,ioos:station:SCCF:13:1,2019-11-13T16:00:00Z,26.5255,-82.0032,2.37,25.24,11111222 
SCCF RECON,ioos:station:SCCF:13:1,2019-11-13T17:00:00Z,26.5255,-82.0032,2.432,26.06,11111222 
SCCF RECON,ioos:station:SCCF:13:1,2019-11-13T18:00:00Z,26.5255,-82.0032,2.494,27.9,11111222 
SCCF RECON,ioos:station:SCCF:13:1,2019-11-13T19:00:00Z,26.5255,-82.0032,2.551,29.35,11111222 
SCCF RECON,ioos:station:SCCF:13:1,2019-11-13T20:00:00Z,26.5255,-82.0032,2.568,31.19,11111222 
SCCF RECON,ioos:station:SCCF:13:1,2019-11-13T21:00:00Z,26.5255,-82.0032,2.514,31.9,11111222 
SCCF RECON,ioos:station:SCCF:13:1,2019-11-13T22:00:00Z,26.5255,-82.0032,2.44,31.87,11111222 
SCCF RECON,ioos:station:SCCF:13:1,2019-11-14T05:00:00Z,26.5255,-82.0032,2.66,31.29,11111222 
SCCF RECON,ioos:station:SCCF:13:1,2019-11-14T06:00:00Z,26.5255,-82.0032,2.71,31.95,11111222 
SCCF RECON,ioos:station:SCCF:13:1,2019-11-14T07:00:00Z,26.5255,-82.0032,2.7,32.19,11111222 
SCCF RECON,ioos:station:SCCF:13:1,2019-11-14T08:00:00Z,26.5255,-82.0032,2.622,32.31,11111222 
SCCF RECON,ioos:station:SCCF:13:1,2019-11-14T09:00:00Z,26.5255,-82.0032,2.51,32.25,11111222 
SCCF RECON,ioos:station:SCCF:13:1,2019-11-14T10:00:00Z,26.5255,-82.0032,2.4,31.32,11111222 
SCCF RECON,ioos:station:SCCF:13:1,2019-11-14T11:00:00Z,26.5255,-82.0032,2.3,28.05,11111222 
SCCF RECON,ioos:station:SCCF:13:1,2019-11-14T12:00:00Z,26.5255,-82.0032,2.21,28.56,11111222 
SCCF RECON,ioos:station:SCCF:13:1,2019-11-14T13:00:00Z,26.5255,-82.0032,2.123,26.7,11111222 
SCCF RECON,ioos:station:SCCF:13:1,2019-11-14T14:00:00Z,26.5255,-82.0032,2.102,26.1,11111222 
SCCF RECON,ioos:station:SCCF:13:1,2019-11-14T15:00:00Z,26.5255,-82.0032,2.23,25.44,11111222 
SCCF RECON,ioos:station:SCCF:13:1,2019-11-14T16:00:00Z,26.5255,-82.0032,2.389,25.52,11111222 
SCCF RECON,ioos:station:SCCF:13:1,2019-11-14T17:00:00Z,26.5255,-82.0032,2.462,27.27,11111222 
SCCF RECON,ioos:station:SCCF:13:1,2019-11-14T18:00:00Z,26.5255,-82.0032,2.527,29.17,11111222 
SCCF RECON,ioos:station:SCCF:13:1,2019-11-14T19:00:00Z,26.5255,-82.0032,2.588,32.02,11111222 
SCCF RECON,ioos:station:SCCF:13:1,2019-11-14T20:00:00Z,26.5255,-82.0032,2.617,32.16,11111222 
SCCF RECON,ioos:station:SCCF:13:1,2019-11-14T21:00:00Z,26.5255,-82.0032,2.63,31.95,11111222 
SCCF RECON,ioos:station:SCCF:13:1,2019-11-14T22:00:00Z,26.5255,-82.0032,2.61,31.93,11111222 
SCCF RECON,ioos:station:SCCF:13:1,2019-11-15T05:00:00Z,26.5255,-82.0032,2.818,32.26,11111222 
SCCF RECON,ioos:station:SCCF:13:1,2019-11-15T06:00:00Z,26.5255,-82.0032,2.85,32.82,11111222 
SCCF RECON,ioos:station:SCCF:13:1,2019-11-15T07:00:00Z,26.5255,-82.0032,2.86,33.03,11111222 
SCCF RECON,ioos:station:SCCF:13:1,2019-11-15T08:00:00Z,26.5255,-82.0032,2.81,33.19,11111222 
SCCF RECON,ioos:station:SCCF:13:1,2019-11-15T09:00:00Z,26.5255,-82.0032,2.72,32.82,11111222 
SCCF RECON,ioos:station:SCCF:13:1,2019-11-15T10:00:00Z,26.5255,-82.0032,2.62,33.05,11111222 
SCCF RECON,ioos:station:SCCF:13:1,2019-11-15T11:00:00Z,26.5255,-82.0032,2.52,32.17,11111222 
SCCF RECON,ioos:station:SCCF:13:1,2019-11-15T12:00:00Z,26.5255,-82.0032,2.42,30.92,11111222 
SCCF RECON,ioos:station:SCCF:13:1,2019-11-15T13:00:00Z,26.5255,-82.0032,2.326,30.49,11111222 
SCCF RECON,ioos:station:SCCF:13:1,2019-11-15T14:00:00Z,26.5255,-82.0032,2.26,30.21,11111222 
SCCF RECON,ioos:station:SCCF:13:1,2019-11-15T15:00:00Z,26.5255,-82.0032,2.231,29.57,11111222 